Regional Weather Roundup
Issued by NWS Cleveland, OH

Home | Current Version | Previous Version | Graphics & Text | Print | Product List | Glossary On
Versions: 1 2 3 4 5 6 7 8 9 10 11 12 13 14 15 16 17 18 19 20 21 22 23 24 25 26 27 28 29 30 31 32 33 34 35 36 37 38 39 40 41 42 43 44 45 46 47 48 49 50
000
ASUS41 KCLE 230100
RWRCLE
OHIO REGIONAL WEATHER ROUNDUP
NATIONAL WEATHER SERVICE WILMINGTON, OH
900 PM EDT SUN OCT 22 2017

NOTE: "FAIR" INDICATES FEW OR NO CLOUDS BELOW 12,000 FEET WITH NO
SIGNIFICANT WEATHER AND/OR OBSTRUCTIONS TO VISIBILITY.

OHZ001>008-015>018-024>027-034-035-043-044-230200-
   NORTHWEST OHIO

CITY           SKY/WX    TMP DP  RH WIND       PRES   REMARKS
DEFIANCE       FAIR      70  52  52 S10       30.05S
FINDLAY        FAIR      64  47  53 S12       30.07S
TOLEDO EXPRESS FAIR      69  53  56 S7        30.05S
TOLEDO EXEC    FAIR      67  51  56 S10       30.07S
LIMA           FAIR      66  48  52 S8        30.08S
$$

OHZ009>014-019>023-028>033-038-089-230200-
   NORTHEAST OHIO

CITY           SKY/WX    TMP DP  RH WIND       PRES   REMARKS
CLE-HOPKINS    MOCLDY    64  48  56 S8        30.13F
CLE-LAKEFRONT  FAIR      69  49  48 S8        30.10F
CUY CO. ARPT   MOCLDY    70  52  52 S8        30.13F
LORAIN-ELYRIA  NOT AVBL
ASHTABULA      FAIR      66  51  58 S6        30.15F
AKRON-CANTON   CLOUDY    66  49  54 S9        30.15F
WOOSTER        NOT AVBL
MANSFIELD      FAIR      64  50  60 S9        30.13F
YOUNGSTOWN     CLOUDY    63  49  60 SE7       30.16F
$$

OHZ042-051>053-060>062-070>072-077>081-230200-
  SOUTHWEST OHIO

CITY           SKY/WX    TMP DP  RH WIND       PRES   REMARKS
CINC-COVINGTON CLOUDY    67  54  63 SE10      30.07F
CINC-LUNKEN    FAIR      60  55  83 CALM      30.08F
HAMILTON       FAIR      63  52  67 E5        30.08F
DAYTON         NOT AVBL
WRIGHT-PAT AFB LGT RAIN  66  46  47 SE8       30.09F
DAYTON GENERAL FAIR      67  49  52 SE9       30.09F
WILMINGTON     FAIR      62  49  62 SE7       30.11F
$$

OHZ036-037-039>041-045>050-054>059-063>069-073>076-082>088-230200-
  CENTRAL AND SOUTHEAST OHIO

CITY           SKY/WX    TMP DP  RH WIND       PRES   REMARKS
COLUMBUS       CLOUDY    65  53  65 SE6       30.12S
OSU AIRPORT    FAIR      67  51  56 S6        30.12S
BOLTON FIELD   NOT AVBL
RICKENBACK AFB NOT AVBL
NEWARK         FAIR      57  51  80 CALM      30.13S
MARION         FAIR      65  49  56 S8        30.11F
LANCASTER      FAIR      55  52  89 CALM      30.13F
ZANESVILLE     FAIR      62  51  67 CALM      30.14S
NEW PHILLY     FAIR      58  51  78 SE3       30.15F
$$



USA.gov is the U.S. government's official web portal to all federal, state and local government web resources and services.